User: anonymous
Location: Unspecified
(0.0000°N, 0.0000°E)
Time: 15:59:51
(UTC+02:00)
Language:

H-2A R/B - Orbit

View from above orbital plane
View from above orbital plane
View from above satellite
View from above satellite

Ground track
Ground track

The orbit data is extracted from the following two-line orbital elements,

1 28932U 06002B   14261.50662823  .00002906  00000-0  29646-3 0  7960
2 28932 098.2900 126.2100 0095325 350.4135 094.4389 14.88192072468468
Epoch (UTC): 18 September 2014 12:09:32
Eccentricity: 0.0095325
inclination: 98.2900°
perigee height: 537 km
apogee height: 670 km
right ascension of ascending node: 126.2100°
argument of perigee: 350.4135°
revolutions per day: 14.88192072
mean anomaly at epoch: 94.4389°
orbit number at epoch: 46846

The dashed part of the orbit path shows where the satellite is in the earth's shadow,  

DLR